N1557G KOSU-KLUK

Flight info

Callsign N1557G
Flight time 0h 42m
Altitude 14000
Route PKACZ TARRY BRNIE
Aircraft C414/L-SBDFGRY/S

Departure

Time 2026-05-08 23:56
Airport The Ohio State University Airport - Don Scott Field (KOSU)

Arrival

Time 2026-05-09 00:39
Airport Cincinnati Municipal Airport Lunken Field (KLUK)
Time Latitude Longitude Altitude Speed Heading
2026-05-08 23:42 40.07578 -83.07505 905 ft 0 kts 180°
2026-05-08 23:50 40.07567 -83.07491 905 ft 6 kts 99°
2026-05-08 23:51 40.07569 -83.07418 904 ft 8 kts 78°
2026-05-08 23:51 40.07603 -83.07391 904 ft 6 kts 37°
2026-05-08 23:51 40.07612 -83.07306 902 ft 13 kts 86°
2026-05-08 23:51 40.07617 -83.07179 901 ft 15 kts 87°
2026-05-08 23:52 40.07623 -83.07037 901 ft 15 kts 88°
2026-05-08 23:52 40.07627 -83.06908 899 ft 14 kts 89°
2026-05-08 23:52 40.07633 -83.06772 896 ft 16 kts 87°
2026-05-08 23:52 40.07638 -83.06651 895 ft 8 kts 86°
2026-05-08 23:53 40.07640 -83.06585 896 ft 11 kts 87°
2026-05-08 23:53 40.07652 -83.06489 896 ft 10 kts 75°
2026-05-08 23:53 40.07675 -83.06400 894 ft 11 kts 50°
2026-05-08 23:53 40.07699 -83.06384 893 ft 0 kts 356°
2026-05-08 23:55 40.07717 -83.06385 893 ft 10 kts 355°
2026-05-08 23:55 40.07780 -83.06398 891 ft 9 kts 316°
2026-05-08 23:55 40.07786 -83.06419 891 ft 1 kts 265°
2026-05-08 23:56 40.07777 -83.06611 893 ft 47 kts 268°
2026-05-08 23:56 40.07750 -83.07242 930 ft 87 kts 265°
2026-05-08 23:56 40.07670 -83.08094 1164 ft 96 kts 261°
2026-05-08 23:56 40.07614 -83.08968 1513 ft 97 kts 265°
2026-05-08 23:57 40.07553 -83.09865 1868 ft 102 kts 264°
2026-05-08 23:57 40.07493 -83.10784 2164 ft 101 kts 264°
2026-05-08 23:57 40.07435 -83.11687 2448 ft 98 kts 264°
2026-05-08 23:57 40.07380 -83.12574 2729 ft 99 kts 264°
2026-05-08 23:58 40.07331 -83.13478 2992 ft 103 kts 264°
2026-05-08 23:58 40.07248 -83.14505 3015 ft 124 kts 257°
2026-05-08 23:58 40.07061 -83.15675 3102 ft 133 kts 258°
2026-05-08 23:58 40.06897 -83.16842 3373 ft 128 kts 258°
2026-05-08 23:59 40.06743 -83.17976 3628 ft 126 kts 258°
2026-05-08 23:59 40.06572 -83.19111 3704 ft 129 kts 253°
2026-05-08 23:59 40.06248 -83.20162 3866 ft 122 kts 239°
2026-05-08 23:59 40.05613 -83.20920 3855 ft 134 kts 210°
2026-05-09 00:00 40.04787 -83.21481 3872 ft 133 kts 225°
2026-05-09 00:00 40.04310 -83.22475 3829 ft 130 kts 250°
2026-05-09 00:00 40.04131 -83.23664 3817 ft 137 kts 261°
2026-05-09 00:00 40.04121 -83.24930 3798 ft 144 kts 271°
2026-05-09 00:01 40.04266 -83.26278 3652 ft 156 kts 274°
2026-05-09 00:01 40.04373 -83.27682 3730 ft 152 kts 269°
2026-05-09 00:01 40.04307 -83.29027 3871 ft 145 kts 256°
2026-05-09 00:01 40.04135 -83.30260 4162 ft 137 kts 271°
2026-05-09 00:02 40.04361 -83.31470 4371 ft 137 kts 279°
2026-05-09 00:02 40.04608 -83.32654 4569 ft 134 kts 277°
2026-05-09 00:02 40.04530 -83.33796 4768 ft 125 kts 251°
2026-05-09 00:02 40.04328 -83.34881 5035 ft 120 kts 254°
2026-05-09 00:03 40.04174 -83.35919 5323 ft 113 kts 255°
2026-05-09 00:03 40.04040 -83.36908 5618 ft 108 kts 255°
2026-05-09 00:03 40.03917 -83.37851 5906 ft 102 kts 254°
2026-05-09 00:03 40.03806 -83.38715 6188 ft 98 kts 254°
2026-05-09 00:04 40.03697 -83.39575 6474 ft 94 kts 254°
2026-05-09 00:04 40.03594 -83.40396 6751 ft 89 kts 254°
2026-05-09 00:04 40.03495 -83.41169 7026 ft 84 kts 253°
2026-05-09 00:04 40.03403 -83.41898 7304 ft 79 kts 253°
2026-05-09 00:05 40.03317 -83.42579 7581 ft 73 kts 253°
2026-05-09 00:05 40.03237 -83.43202 7838 ft 69 kts 253°
2026-05-09 00:05 40.03150 -83.43898 7898 ft 86 kts 256°
2026-05-09 00:05 40.03051 -83.44716 8009 ft 97 kts 256°
2026-05-09 00:06 40.02941 -83.45618 8180 ft 104 kts 256°
2026-05-09 00:06 40.02820 -83.46581 8344 ft 111 kts 257°
2026-05-09 00:06 40.02697 -83.47570 8599 ft 111 kts 257°
2026-05-09 00:06 40.02571 -83.48562 8844 ft 111 kts 257°
2026-05-09 00:07 40.02446 -83.49559 9092 ft 112 kts 258°
2026-05-09 00:07 40.02319 -83.50562 9326 ft 112 kts 258°
2026-05-09 00:07 40.02192 -83.51571 9572 ft 113 kts 258°
2026-05-09 00:07 40.02065 -83.52577 9810 ft 112 kts 258°
2026-05-09 00:08 40.01939 -83.53579 10025 ft 112 kts 259°
2026-05-09 00:08 40.01812 -83.54582 10246 ft 112 kts 259°
2026-05-09 00:08 40.01685 -83.55584 10459 ft 112 kts 260°
2026-05-09 00:08 40.01558 -83.56587 10677 ft 112 kts 261°
2026-05-09 00:09 40.01431 -83.57588 10895 ft 112 kts 261°
2026-05-09 00:09 40.01364 -83.58589 11116 ft 111 kts 275°
2026-05-09 00:09 40.01504 -83.59584 11343 ft 111 kts 275°
2026-05-09 00:09 40.01626 -83.60575 11584 ft 110 kts 276°
2026-05-09 00:10 40.01747 -83.61550 11825 ft 108 kts 276°
2026-05-09 00:10 40.01867 -83.62508 12084 ft 106 kts 276°
2026-05-09 00:10 40.01985 -83.63455 12336 ft 105 kts 277°
2026-05-09 00:10 40.02102 -83.64395 12592 ft 104 kts 277°
2026-05-09 00:11 40.02218 -83.65323 12848 ft 103 kts 277°
2026-05-09 00:11 40.02333 -83.66252 12993 ft 109 kts 278°
2026-05-09 00:11 40.02463 -83.67286 13009 ft 122 kts 278°
2026-05-09 00:11 40.02605 -83.68427 13004 ft 133 kts 278°
2026-05-09 00:12 40.02759 -83.69661 13002 ft 142 kts 278°
2026-05-09 00:12 40.02921 -83.70962 13001 ft 149 kts 278°
2026-05-09 00:12 40.03089 -83.72314 13000 ft 153 kts 278°
2026-05-09 00:12 40.03261 -83.73704 12998 ft 157 kts 278°
2026-05-09 00:13 40.03436 -83.75122 13000 ft 159 kts 278°
2026-05-09 00:13 40.03613 -83.76557 13001 ft 161 kts 278°
2026-05-09 00:13 40.03792 -83.78008 12996 ft 163 kts 278°
2026-05-09 00:13 40.03973 -83.79467 12994 ft 163 kts 278°
2026-05-09 00:14 40.04152 -83.80926 12983 ft 163 kts 278°
2026-05-09 00:14 40.04331 -83.82385 12982 ft 163 kts 278°
2026-05-09 00:14 40.04511 -83.83845 12981 ft 163 kts 277°
2026-05-09 00:14 40.04690 -83.85307 12980 ft 163 kts 278°
2026-05-09 00:15 40.04870 -83.86769 12976 ft 163 kts 278°
2026-05-09 00:15 40.05049 -83.88237 12979 ft 164 kts 278°
2026-05-09 00:15 40.05117 -83.89713 12976 ft 165 kts 263°
2026-05-09 00:15 40.04664 -83.91103 12979 ft 172 kts 241°
2026-05-09 00:16 40.03721 -83.92107 12979 ft 187 kts 215°
2026-05-09 00:16 40.02459 -83.92651 12988 ft 192 kts 208°
2026-05-09 00:16 40.01184 -83.93160 12987 ft 192 kts 209°
2026-05-09 00:16 39.99908 -83.93677 12984 ft 192 kts 209°
2026-05-09 00:17 39.98632 -83.94195 12983 ft 192 kts 209°
2026-05-09 00:17 39.97355 -83.94714 12981 ft 192 kts 209°
2026-05-09 00:17 39.96079 -83.95234 12980 ft 192 kts 209°
2026-05-09 00:17 39.94800 -83.95753 12977 ft 192 kts 209°
2026-05-09 00:18 39.93521 -83.96273 12976 ft 193 kts 209°
2026-05-09 00:18 39.92267 -83.96776 13175 ft 183 kts 210°
2026-05-09 00:18 39.91082 -83.97252 13425 ft 174 kts 211°
2026-05-09 00:18 39.89950 -83.97712 13672 ft 167 kts 212°
2026-05-09 00:19 39.88862 -83.98153 13895 ft 161 kts 212°
2026-05-09 00:19 39.87788 -83.98595 13994 ft 164 kts 212°
2026-05-09 00:19 39.86669 -83.99059 13997 ft 173 kts 211°
2026-05-09 00:19 39.85500 -83.99535 14001 ft 179 kts 211°
2026-05-09 00:20 39.84296 -84.00020 14008 ft 183 kts 210°
2026-05-09 00:20 39.83068 -84.00516 14011 ft 186 kts 210°
2026-05-09 00:20 39.81821 -84.01020 14008 ft 189 kts 210°
2026-05-09 00:20 39.80556 -84.01532 14009 ft 191 kts 210°
2026-05-09 00:21 39.79283 -84.02046 14010 ft 192 kts 210°
2026-05-09 00:21 39.77999 -84.02565 14008 ft 194 kts 210°
2026-05-09 00:21 39.76710 -84.03085 14008 ft 194 kts 210°
2026-05-09 00:21 39.75418 -84.03607 14009 ft 195 kts 210°
2026-05-09 00:22 39.74122 -84.04131 14013 ft 195 kts 210°
2026-05-09 00:22 39.72824 -84.04655 14008 ft 195 kts 210°
2026-05-09 00:22 39.71528 -84.05177 14007 ft 195 kts 210°
2026-05-09 00:22 39.70232 -84.05700 14009 ft 195 kts 210°
2026-05-09 00:23 39.68932 -84.06225 14007 ft 195 kts 210°
2026-05-09 00:23 39.67634 -84.06748 14004 ft 196 kts 210°
2026-05-09 00:23 39.66339 -84.07269 14002 ft 195 kts 210°
2026-05-09 00:23 39.65480 -84.07615 14002 ft 195 kts 210°
2026-05-09 00:24 39.64184 -84.08137 14005 ft 195 kts 211°
2026-05-09 00:24 39.62891 -84.08659 14002 ft 195 kts 210°
2026-05-09 00:24 39.61597 -84.09179 14000 ft 194 kts 210°
2026-05-09 00:24 39.60307 -84.09697 13995 ft 194 kts 210°
2026-05-09 00:25 39.59020 -84.10215 13996 ft 194 kts 210°
2026-05-09 00:25 39.57735 -84.10732 14007 ft 194 kts 211°
2026-05-09 00:25 39.56430 -84.11220 14009 ft 195 kts 209°
2026-05-09 00:25 39.55100 -84.11689 13824 ft 202 kts 208°
2026-05-09 00:26 39.53737 -84.12175 13577 ft 204 kts 208°
2026-05-09 00:26 39.52373 -84.12669 13315 ft 202 kts 210°
2026-05-09 00:26 39.51052 -84.13276 12925 ft 204 kts 213°
2026-05-09 00:26 39.49723 -84.13958 12441 ft 206 kts 213°
2026-05-09 00:27 39.48400 -84.14659 11952 ft 205 kts 213°
2026-05-09 00:27 39.47089 -84.15372 11479 ft 204 kts 213°
2026-05-09 00:27 39.45794 -84.16093 11011 ft 202 kts 213°
2026-05-09 00:27 39.44525 -84.16840 10544 ft 197 kts 217°
2026-05-09 00:28 39.43390 -84.17771 10090 ft 191 kts 222°
2026-05-09 00:28 39.42317 -84.18775 9619 ft 189 kts 223°
2026-05-09 00:28 39.41249 -84.19764 9115 ft 189 kts 221°
2026-05-09 00:28 39.40168 -84.20724 8610 ft 187 kts 220°
2026-05-09 00:29 39.39104 -84.21690 8029 ft 187 kts 220°
2026-05-09 00:29 39.38050 -84.22684 7460 ft 187 kts 220°
2026-05-09 00:29 39.37013 -84.23704 6894 ft 187 kts 220°
2026-05-09 00:29 39.35994 -84.24744 6336 ft 187 kts 220°
2026-05-09 00:30 39.34986 -84.25803 5751 ft 187 kts 220°
2026-05-09 00:30 39.33986 -84.26864 5173 ft 185 kts 220°
2026-05-09 00:30 39.33000 -84.27916 4603 ft 183 kts 220°
2026-05-09 00:30 39.32038 -84.28947 4024 ft 180 kts 220°
2026-05-09 00:31 39.31101 -84.29952 3450 ft 172 kts 220°
2026-05-09 00:31 39.30198 -84.30927 3016 ft 163 kts 220°
2026-05-09 00:31 39.29402 -84.31785 3001 ft 136 kts 220°
2026-05-09 00:31 39.28676 -84.32409 2987 ft 119 kts 197°
2026-05-09 00:32 39.27903 -84.32560 2986 ft 106 kts 195°
2026-05-09 00:32 39.27175 -84.32712 2994 ft 111 kts 195°
2026-05-09 00:32 39.26398 -84.32963 2999 ft 119 kts 205°
2026-05-09 00:32 39.25618 -84.33363 3005 ft 119 kts 204°
2026-05-09 00:33 39.24888 -84.33728 2989 ft 105 kts 205°
2026-05-09 00:33 39.24253 -84.34034 2985 ft 91 kts 204°
2026-05-09 00:33 39.23823 -84.34515 2974 ft 80 kts 230°
2026-05-09 00:33 39.23337 -84.34869 2907 ft 82 kts 204°
2026-05-09 00:34 39.22792 -84.35112 2995 ft 86 kts 204°
2026-05-09 00:34 39.22202 -84.35396 3010 ft 94 kts 204°
2026-05-09 00:34 39.21579 -84.35700 3007 ft 97 kts 205°
2026-05-09 00:34 39.20955 -84.35994 3005 ft 94 kts 204°
2026-05-09 00:35 39.20353 -84.36305 2977 ft 95 kts 208°
2026-05-09 00:35 39.19729 -84.36670 2851 ft 101 kts 207°
2026-05-09 00:35 39.19072 -84.36992 2767 ft 102 kts 205°
2026-05-09 00:35 39.18430 -84.37349 2660 ft 98 kts 206°
2026-05-09 00:36 39.17833 -84.37674 2558 ft 96 kts 205°
2026-05-09 00:36 39.17198 -84.37990 2226 ft 99 kts 204°
2026-05-09 00:36 39.16522 -84.38271 1861 ft 103 kts 203°
2026-05-09 00:36 39.15856 -84.38643 1672 ft 106 kts 207°
2026-05-09 00:37 39.15182 -84.39034 1489 ft 107 kts 203°
2026-05-09 00:37 39.14494 -84.39401 1259 ft 105 kts 200°
2026-05-09 00:37 39.13809 -84.39704 1062 ft 106 kts 200°
2026-05-09 00:37 39.13150 -84.40047 991 ft 99 kts 203°
2026-05-09 00:38 39.12498 -84.40352 871 ft 101 kts 199°
2026-05-09 00:38 39.11828 -84.40681 747 ft 104 kts 202°
2026-05-09 00:38 39.11155 -84.41020 612 ft 103 kts 201°
2026-05-09 00:38 39.10516 -84.41336 500 ft 92 kts 201°
2026-05-09 00:39 39.09994 -84.41595 483 ft 68 kts 201°
2026-05-09 00:39 39.09647 -84.41801 480 ft 42 kts 219°
2026-05-09 00:39 39.09520 -84.41994 480 ft 18 kts 244°
2026-05-09 00:39 39.09475 -84.42113 485 ft 12 kts 246°
2026-05-09 00:40 39.09491 -84.42197 490 ft 11 kts 333°
2026-05-09 00:40 39.09555 -84.42238 488 ft 10 kts 333°
2026-05-09 00:40 39.09584 -84.42292 490 ft 9 kts 233°
2026-05-09 00:41 39.09558 -84.42353 492 ft 0 kts 243°